Location: Hylvaty SDH
(49.9612°N, 16.4057°E)
Time: 03:49:50
(UTC+01:00)

Tiros 1 despin weight - Pass Details

Date: 25 January 2021
Orbit: 593 x 642 km, 48.2° (Epoch: 24 February)

Event Time Altitude Azimuth Distance (km) Brightness Sun altitude
Rises 19:54:41 0° 278° (W) 2,848 ? -31.5°
Reaches altitude 10° 19:57:40 10° 258° (WSW) 1,934 ? -32.0°
Enters shadow 19:59:47 16° 230° (SW) 1,568 ? -32.3°
